When you browse on this site, cookies collect data to enhance your experience and personalize the content and advertising you see.
Visit our Privacy Policy to learn more. By continuing to use the site, you agree to this use of cookies and data.
EN

Hourly Weather Gitega

Today, 26 September, Saturday

Time Temperature Precipitation Wind Pressure Humidity
00:00 +19°C° 0 mm 1 mps 622 mmHg 72%
01:00 +18°C° 0 mm 1 mps 622 mmHg 74%
02:00 +18°C° 0 mm 1 mps 621 mmHg 76%
03:00 +18°C° 0 mm 1 mps 621 mmHg 77%
04:00 +16°C° 0 mm 1 mps 621 mmHg 78%
05:00 +16°C° 0 mm 1 mps 621 mmHg 80%
06:00 +18°C° 0 mm 0 mps 623 mmHg 70%
07:00 +20°C° 0 mm 0 mps 624 mmHg 60%
08:00 +23°C° 0 mm 0 mps 625 mmHg 50%
09:00 +26°C° 0 mm 1 mps 625 mmHg 44%
10:00 +28°C° 0 mm 2 mps 625 mmHg 38%
11:00 +30°C° 0 mm 3 mps 625 mmHg 32%
12:00 +29°C° 0 mm 3 mps 624 mmHg 35%
13:00 +28°C° 0 mm 3 mps 623 mmHg 38%
14:00 +27°C° 0 mm 2 mps 622 mmHg 41%
15:00 +26°C° 0 mm 2 mps 622 mmHg 42%
16:00 +26°C° 0 mm 2 mps 622 mmHg 43%
17:00 +26°C° 0 mm 2 mps 622 mmHg 44%
18:00 +25°C° 0 mm 1 mps 622 mmHg 49%
19:00 +24°C° 0 mm 1 mps 622 mmHg 54%
20:00 +22°C° 0 mm 1 mps 622 mmHg 58%
21:00 +21°C° 0.1 mm 1 mps 622 mmHg 62%
22:00 +21°C° 0.1 mm 1 mps 622 mmHg 66%
23:00 +18°C° 0.1 mm 0 mps 622 mmHg 69%

Tomorrow, 27 September, Sunday

Time Temperature Precipitation Wind Pressure Humidity
00:00 +19°C° 0 mm 1 mps 621 mmHg 71%
01:00 +19°C° 0 mm 1 mps 621 mmHg 74%
02:00 +18°C° 0 mm 1 mps 620 mmHg 76%
03:00 +18°C° 0 mm 1 mps 620 mmHg 77%
04:00 +18°C° 0 mm 1 mps 620 mmHg 78%
05:00 +16°C° 0 mm 1 mps 620 mmHg 80%
06:00 +20°C° 0 mm 1 mps 622 mmHg 70%
07:00 +23°C° 0 mm 1 mps 623 mmHg 60%
08:00 +25°C° 0 mm 1 mps 624 mmHg 50%
09:00 +27°C° 0 mm 1 mps 625 mmHg 44%
10:00 +29°C° 0 mm 2 mps 625 mmHg 37%
11:00 +31°C° 0 mm 3 mps 625 mmHg 31%
12:00 +30°C° 0.2 mm 3 mps 624 mmHg 35%
13:00 +29°C° 0.2 mm 4 mps 623 mmHg 40%
14:00 +27°C° 0.2 mm 4 mps 622 mmHg 45%
15:00 +26°C° 1 mm 4 mps 621 mmHg 52%
16:00 +24°C° 1 mm 3 mps 620 mmHg 60%
17:00 +21°C° 1 mm 3 mps 620 mmHg 67%
18:00 +21°C° 0.6 mm 2 mps 620 mmHg 71%
19:00 +21°C° 0.6 mm 1 mps 621 mmHg 74%
20:00 +20°C° 0.6 mm 1 mps 621 mmHg 77%
21:00 +20°C° 1.2 mm 1 mps 621 mmHg 80%
22:00 +19°C° 1.2 mm 1 mps 621 mmHg 83%
23:00 +19°C° 1.2 mm 1 mps 621 mmHg 86%

Day after tomorrow, 28 September, Monday

Time Temperature Precipitation Wind Pressure Humidity
00:00 +18°C° 0.6 mm 1 mps 621 mmHg 86%
01:00 +18°C° 0.6 mm 1 mps 621 mmHg 86%
02:00 +18°C° 0.6 mm 1 mps 621 mmHg 86%
03:00 +19°C° 0 mm 1 mps 621 mmHg 84%
04:00 +19°C° 0 mm 1 mps 621 mmHg 83%
05:00 +19°C° 0 mm 1 mps 621 mmHg 82%
06:00 +20°C° 0 mm 1 mps 622 mmHg 75%
07:00 +22°C° 0 mm 1 mps 623 mmHg 68%
08:00 +22°C° 0 mm 0 mps 624 mmHg 61%
09:00 +25°C° 0.3 mm 1 mps 624 mmHg 57%
10:00 +26°C° 0.3 mm 2 mps 625 mmHg 52%
11:00 +27°C° 0.3 mm 2 mps 625 mmHg 48%
12:00 +27°C° 0.7 mm 3 mps 624 mmHg 47%
13:00 +27°C° 0.7 mm 3 mps 623 mmHg 47%
14:00 +27°C° 0.7 mm 3 mps 622 mmHg 47%
15:00 +26°C° 0.6 mm 2 mps 622 mmHg 51%
16:00 +25°C° 0.6 mm 1 mps 622 mmHg 55%
17:00 +22°C° 0.6 mm 0 mps 621 mmHg 59%
18:00 +21°C° 0.8 mm 0 mps 622 mmHg 66%
19:00 +22°C° 0.8 mm 1 mps 622 mmHg 72%
20:00 +20°C° 0.8 mm 1 mps 622 mmHg 79%
21:00 +20°C° 0.8 mm 1 mps 622 mmHg 80%
22:00 +20°C° 0.8 mm 1 mps 622 mmHg 82%
23:00 +19°C° 0.8 mm 1 mps 622 mmHg 83%

29 September, Tuesday

Time Temperature Precipitation Wind Pressure Humidity
00:00 +19°C° 0.1 mm 1 mps 622 mmHg 84%
01:00 +19°C° 0.1 mm 1 mps 621 mmHg 84%
02:00 +16°C° 0.1 mm 0 mps 621 mmHg 84%
03:00 +17°C° 0.2 mm 0 mps 621 mmHg 84%
04:00 +17°C° 0.2 mm 0 mps 622 mmHg 84%
05:00 +19°C° 0.2 mm 1 mps 622 mmHg 84%
06:00 +18°C° 0.1 mm 0 mps 623 mmHg 78%
07:00 +19°C° 0.1 mm 0 mps 624 mmHg 73%
08:00 +21°C° 0.1 mm 0 mps 625 mmHg 67%
09:00 +24°C° 0.8 mm 1 mps 625 mmHg 63%
10:00 +25°C° 0.8 mm 2 mps 625 mmHg 58%
11:00 +26°C° 0.8 mm 3 mps 625 mmHg 53%
12:00 +26°C° 0.5 mm 2 mps 624 mmHg 52%
13:00 +27°C° 0.5 mm 2 mps 623 mmHg 50%
14:00 +27°C° 0.5 mm 2 mps 622 mmHg 48%
15:00 +27°C° 0.2 mm 2 mps 622 mmHg 50%
16:00 +26°C° 0.2 mm 1 mps 622 mmHg 51%
17:00 +26°C° 0.2 mm 1 mps 622 mmHg 53%
18:00 +25°C° 0.2 mm 1 mps 622 mmHg 60%
19:00 +23°C° 0.2 mm 1 mps 622 mmHg 66%
20:00 +21°C° 0.2 mm 1 mps 622 mmHg 73%
21:00 +21°C° 0.2 mm 1 mps 622 mmHg 76%
22:00 +20°C° 0.2 mm 1 mps 622 mmHg 79%
23:00 +19°C° 0.2 mm 1 mps 622 mmHg 81%

30 September, Wednesday

Time Temperature Precipitation Wind Pressure Humidity
00:00 +19°C° 0.4 mm 1 mps 622 mmHg 83%
01:00 +17°C° 0.4 mm 0 mps 621 mmHg 84%
02:00 +17°C° 0.4 mm 0 mps 621 mmHg 85%
03:00 +17°C° 0.6 mm 0 mps 621 mmHg 85%
04:00 +19°C° 0.6 mm 1 mps 621 mmHg 84%
05:00 +19°C° 0.6 mm 1 mps 621 mmHg 84%
06:00 +20°C° 0.3 mm 1 mps 622 mmHg 80%
07:00 +21°C° 0.3 mm 1 mps 623 mmHg 75%
08:00 +22°C° 0.3 mm 1 mps 624 mmHg 71%
09:00 +23°C° 1.2 mm 1 mps 624 mmHg 66%
10:00 +24°C° 1.2 mm 2 mps 624 mmHg 61%
11:00 +25°C° 1.2 mm 2 mps 624 mmHg 57%
12:00 +25°C° 1.2 mm 2 mps 623 mmHg 57%
13:00 +26°C° 1.2 mm 2 mps 622 mmHg 57%
14:00 +26°C° 1.2 mm 2 mps 621 mmHg 57%
15:00 +25°C° 1.3 mm 2 mps 621 mmHg 60%
16:00 +25°C° 1.3 mm 2 mps 621 mmHg 62%
17:00 +24°C° 1.3 mm 2 mps 621 mmHg 65%
18:00 +23°C° 0.6 mm 2 mps 621 mmHg 69%
19:00 +22°C° 0.6 mm 1 mps 621 mmHg 72%
20:00 +21°C° 0.6 mm 1 mps 621 mmHg 76%
21:00 +20°C° 0.1 mm 1 mps 621 mmHg 77%
22:00 +20°C° 0.1 mm 1 mps 621 mmHg 78%
23:00 +19°C° 0.1 mm 1 mps 621 mmHg 79%

1 October, Thursday

Time Temperature Precipitation Wind Pressure Humidity
00:00 +19°C° 0.1 mm 1 mps 621 mmHg 80%
01:00 +19°C° 0.1 mm 1 mps 621 mmHg 81%
02:00 +19°C° 0.1 mm 1 mps 620 mmHg 82%
03:00 +18°C° 0 mm 1 mps 620 mmHg 83%
04:00 +18°C° 0 mm 1 mps 620 mmHg 83%
05:00 +15°C° 0 mm 0 mps 620 mmHg 84%
06:00 +17°C° 0 mm 0 mps 621 mmHg 78%
07:00 +19°C° 0 mm 0 mps 622 mmHg 72%
08:00 +21°C° 0 mm 0 mps 624 mmHg 66%
09:00 +24°C° 1 mm 1 mps 624 mmHg 63%
10:00 +25°C° 1 mm 2 mps 624 mmHg 61%
11:00 +25°C° 1 mm 3 mps 624 mmHg 58%
12:00 +25°C° 1.9 mm 3 mps 623 mmHg 59%
13:00 +25°C° 1.9 mm 3 mps 622 mmHg 60%
14:00 +25°C° 1.9 mm 3 mps 622 mmHg 61%
15:00 +25°C° 1.3 mm 3 mps 621 mmHg 63%
16:00 +24°C° 1.3 mm 2 mps 621 mmHg 65%
17:00 +24°C° 1.3 mm 2 mps 621 mmHg 68%
18:00 +23°C° 0.4 mm 1 mps 621 mmHg 71%
19:00 +22°C° 0.4 mm 1 mps 621 mmHg 75%
20:00 +21°C° 0.4 mm 1 mps 622 mmHg 78%
21:00 +20°C° 0.2 mm 1 mps 622 mmHg 80%
22:00 +20°C° 0.2 mm 1 mps 622 mmHg 81%
23:00 +19°C° 0.2 mm 1 mps 622 mmHg 82%
Show more